Location: Unspecified
(0.0000°N, 0.0000°E)
Time: 04:07:49
(UTC+00:00)

deb Delta 104 - Pass Details

Date: 13 March 2026
Orbit: 1430 x 1579 km, 102.3° (Epoch: 17 April)

Event Time Altitude Azimuth Distance (km) Brightness Sun altitude
Rises 03:35:06 0° 48° (NE) 4,756 ? -38.6°
Reaches altitude 10° 03:39:00 10° 64° (ENE) 3,768 ? -37.6°
Maximum altitude 03:45:03 20° 108° (ESE) 3,005 ? -36.1°
Drops below altitude 10° 03:51:00 10° 151° (SSE) 3,727 ? -34.6°
Sets 03:54:46 0° 166° (SSE) 4,690 ? -33.7°
